(312) Pierretta
ephemeris date magn radius delta ra dec elong phase
Today26 Jul 202614.62.910 AU2.920 AU02h40m+18°21'79.4°20.1°
Opposition3 Nov 202613.23.048 AU2.062 AU02h27m+22°44'172.2°2.5°
(312) Pierretta - 2026-07-26
astro.vanbuitenen.nl


 
-1 year
-1 month
-1 day
Now
+1 day
+1 month
+1 year

The interactive orbit chart above shows the body's path through the solar system and its position at the given date. Green and blue lines are shown perpendicular to the ecliptic plane: Green if the path is above the ecliptic plane, blue if it is below. (Left-click and drag to rotate the view; Right-click and drag to move the view; Use scroll wheel to zoom in our out.)

The orbital elements of Pierretta are:

            e (Eccentricity)                : 0.1602788
            a (Semimajor axis)              : 2.7816262
            i (Inclination)                 : 9.03533
            Ω (Longitude of ascending node) : 6.19353
            ω (Argument of perihelion)      : 261.83463
            M (Mean anomaly)                : 87.97588
            Epoch                           : 2026 Jun 09

            L (Longitude of perihelion)     : 87.92698
            B (Latitude of perihelion)      : -8.94298
            P (Orbital period in years)     : 4.64            
        

The light curve chart below shows the estimated development of the minor planet's magnitude.


The all-sky chart below shows the path of the minor planet over the same period as the light curve. The current position is marked yellow.





The following chart shows the path of the minor planet in the next few days. The field of view is optimized for (~10x50) binoculars and finderscopes.




Ephemerides:
Date       Time       RA (2000)    DEC (2000)    delta   radius  elong  phase   PA    magn
2026-07-26 00:00 UT   02 40 00.2   +18 21 34     2.920    2.910   79.4   20.1   253   14.6 
2026-07-26 06:59 UT   02 40 15.1   +18 23 27     2.917    2.911   79.6   20.1   253   14.6 
2026-07-27 00:00 UT   02 40 51.3   +18 28 01     2.908    2.912   80.1   20.1   253   14.6 
2026-07-28 00:00 UT   02 41 41.5   +18 34 26     2.896    2.913   80.9   20.1   253   14.6 
2026-07-29 00:00 UT   02 42 31.0   +18 40 47     2.884    2.915   81.6   20.2   253   14.6 
2026-07-30 00:00 UT   02 43 19.6   +18 47 04     2.872    2.916   82.3   20.2   253   14.6 
2026-07-31 00:00 UT   02 44 07.3   +18 53 19     2.860    2.918   83.1   20.2   253   14.6 
2026-08-01 00:00 UT   02 44 54.2   +18 59 29     2.848    2.919   83.8   20.2   253   14.6 
2026-08-02 00:00 UT   02 45 40.3   +19 05 37     2.836    2.921   84.6   20.2   253   14.5 
2026-08-03 00:00 UT   02 46 25.4   +19 11 41     2.824    2.922   85.3   20.2   253   14.5 
2026-08-04 00:00 UT   02 47 09.6   +19 17 42     2.812    2.924   86.1   20.3   253   14.5 
2026-08-05 00:00 UT   02 47 52.9   +19 23 39     2.800    2.925   86.9   20.3   253   14.5 
2026-08-06 00:00 UT   02 48 35.3   +19 29 33     2.787    2.927   87.6   20.3   253   14.5 
2026-08-07 00:00 UT   02 49 16.7   +19 35 23     2.775    2.928   88.4   20.3   253   14.5 
2026-08-08 00:00 UT   02 49 57.1   +19 41 10     2.763    2.930   89.2   20.2   253   14.5 
2026-08-09 00:00 UT   02 50 36.5   +19 46 53     2.751    2.931   90.0   20.2   253   14.5 
2026-08-10 00:00 UT   02 51 15.0   +19 52 33     2.739    2.933   90.8   20.2   253   14.5 
2026-08-11 00:00 UT   02 51 52.3   +19 58 09     2.726    2.934   91.5   20.2   253   14.5 
2026-08-12 00:00 UT   02 52 28.7   +20 03 41     2.714    2.936   92.3   20.2   253   14.5 
2026-08-13 00:00 UT   02 53 03.9   +20 09 10     2.702    2.937   93.1   20.2   253   14.5 
2026-08-14 00:00 UT   02 53 38.1   +20 14 35     2.690    2.938   93.9   20.1   253   14.4 
2026-08-15 00:00 UT   02 54 11.2   +20 19 56     2.677    2.940   94.7   20.1   253   14.4 
2026-08-16 00:00 UT   02 54 43.1   +20 25 14     2.665    2.941   95.6   20.0   253   14.4 
2026-08-17 00:00 UT   02 55 14.0   +20 30 28     2.653    2.943   96.4   20.0   253   14.4 
2026-08-18 00:00 UT   02 55 43.6   +20 35 38     2.641    2.944   97.2   19.9   253   14.4 
2026-08-19 00:00 UT   02 56 12.2   +20 40 44     2.629    2.946   98.0   19.9   253   14.4 
2026-08-20 00:00 UT   02 56 39.5   +20 45 46     2.616    2.947   98.9   19.8   253   14.4 
2026-08-21 00:00 UT   02 57 05.6   +20 50 45     2.604    2.949   99.7   19.8   253   14.4 
2026-08-22 00:00 UT   02 57 30.6   +20 55 40     2.592    2.950  100.6   19.7   253   14.4 
2026-08-23 00:00 UT   02 57 54.3   +21 00 31     2.580    2.952  101.4   19.6   253   14.3 
2026-08-24 00:00 UT   02 58 16.8   +21 05 17     2.568    2.953  102.3   19.5   253   14.3 
2026-08-25 00:00 UT   02 58 38.0   +21 10 00     2.556    2.954  103.1   19.5   253   14.3 


    Terminology:
            
    delta:  distance between minor planet and earth in AU
    radius: distance between minor planet and sun in AU
    magn:   magnitude (brightness) estimate    
    ra:     right ascension in hours (24h = 360deg)
    dec:    declination in degrees
    elong:  elongation in degrees (angle sun-earth-minor planet)    
    phase:  phase angle in degrees (angle sun-minor planet-earth)        
    AU:     Astronomical Unit (mean distance between earth and sun: 149597870.7 km
    

Orbital elements provided by the MPC (Minor Planet Center).
Calculations by a modified version of AAPlus, a C# implementation of the AA+ project by PJ Naughter from the algorithms presented in the book "Astronomical Algorithms" by Jean Meeus.
NGC2000 dso catalog and star labels from VizieR as provided by the Strasbourg astronomical Data Center.
Tycho2 catalog from the ESO archive.